STARLINK-2494, 48487

Orbit data source: Space-Track

STARLINK-2494, 48487 is a payload satellite owned by SpaceX/Seattle (US) in LEO that was launched on Sun, 09 May 2021 UTC via an FALCON 9 launch vehicle from the Air Force Eastern Test Range (AFETR). Payload-class satellites include a variety of spacecraft equipped with specific instruments for various scientific and technological missions. These include communications satellites like Starlink; space stations such as the ISS; scientific satellites like the Hubble; Earth observation satellites from companies like Planet Labs, Umbra, and HawkEye 360; GPS; miniature CubeSats for education and research; and military/defense satellites.

Loading next visibility...
Identifier
48487, 2021-040BM
Orbit
LEO
Country
Flag of USUS
Related business
Manufacturer
SpaceX/Seattle
Mission
Operational Commercial Communications
Bus & Motor
STARLINK, Unknown motor
Mass
260 kg wet, ~248 kg dry
Launch date (UTC)
2021-05-09 (5 years ago)
Launch vehicle
FALCON 9
Launch site
Air Force Eastern Test Range (AFETR)
Object type
Payload
Rocket body
Debris
Shape & HBR
Box + 1 Pan, 10.1 m
Radar Cross Section
13.562 m², Large (>1 m²)

Expand to show TLE details & history
Last TLE update: 2 days ago

TLE from 2 days ago
0 STARLINK-2494
1 48487U 21040BM  26171.13803522  .00000885  00000-0  40260-4 0  9996
2 48487  53.1606  77.4220 0001233 123.8022 236.3097 15.31704959282166
Epoch: 2026-06-20T03:18Z
TLE epoch observation values (Epoch: 2026-06-20T03:18:46.243Z)
Latitude
0.00001°
Longitude
119.37236°
Altitude
472.094 km
Speed
7.631 km/s
True Right ascension
05h 09m 41s
True Declination
0° 00' 00"
Sunlit
Object was in daylight at epoch
Visualization orbit readout
Latitude
Unknown
Longitude
Unknown
Altitude
Unknown
Speed
Unknown
Apparent Right ascension
Unknown
Apparent Declination
Unknown
Sunlit
N/A
Visualization observer readout
Local Sidereal Time
21:25:15
Azimuth
Unknown
Elevation
Unknown
Doppler factor
Unknown
Orbital elements
Apogee altitude
471.826 km
Perigee altitude
470.137 km
Semi-major axis
6,849.119 km
Eccentricity
0.00012
Inclination
53.1606°
RAAN
77.422°
Arg. of periapsis
123.8022°
True anomaly
236.29794°
Mean anomaly
236.3097°
Eccentric anomaly
236.30382°
Mean motion
3.82905 °/min
Orbital period
94.02 mins
BSTAR
0.00004026
Loading maneuver chart data...
Computing Atmospheric mass density...
Loading historical data...
Loading historical data...
Loading historical data...
Loading historical data...
Loading historical data...
Loading historical data...
Loading historical data...

Documentation

Showing up to 5 results
|